Location: Newark
(54.6833°N, 25.2833°E)
Time: 18:24:55
(UTC+00:00)

Tiros 1 despin weight - Pass Details

Date: 24 November 2019
Orbit: 594 x 642 km, 48.2° (Epoch: 10 December)

Event Time Altitude Azimuth Distance (km) Brightness Sun altitude
Rises 15:40:30 0° 268° (W) 2,842 ? -13.2°
Reaches altitude 10° 15:45:01 10° 226° (SW) 1,945 ? -13.8°
Maximum altitude 15:45:36 10° 218° (SW) 1,931 ? -13.9°
Drops below altitude 10° 15:46:11 10° 211° (SSW) 1,947 ? -14.0°
Sets 15:50:44 0° 169° (SSE) 2,860 ? -14.6°
